When you browse on this site, cookies collect data to enhance your experience and personalize the content and advertising you see.
Visit our Privacy Policy to learn more. By continuing to use the site, you agree to this use of cookies and data.

Météo par heure à Poprad

Ce jour, 2 Juillet, Jeudi

Heure Température Précipitation Vent Pression Humidité
00:00 +18°C° 0.1 mm 1 m/s 698 mmHg 92%
01:00 +18°C° 0 mm 1 m/s 698 mmHg 92%
02:00 +18°C° 0.3 mm 1 m/s 698 mmHg 91%
03:00 +19°C° 0.3 mm 1 m/s 698 mmHg 90%
04:00 +19°C° 0.3 mm 1 m/s 698 mmHg 90%
05:00 +20°C° 0.7 mm 1 m/s 698 mmHg 89%
06:00 +21°C° 0.7 mm 1 m/s 698 mmHg 89%
07:00 +21°C° 0 mm 1 m/s 699 mmHg 86%
08:00 +21°C° 1.5 mm 1 m/s 698 mmHg 88%
09:00 +21°C° 1.5 mm 1 m/s 698 mmHg 90%
10:00 +21°C° 1.5 mm 1 m/s 698 mmHg 92%
11:00 +22°C° 0.9 mm 1 m/s 698 mmHg 89%
12:00 +23°C° 0.9 mm 1 m/s 698 mmHg 86%
13:00 +24°C° 0.9 mm 1 m/s 699 mmHg 83%
14:00 +23°C° 1.4 mm 1 m/s 698 mmHg 84%
15:00 +23°C° 1.4 mm 1 m/s 698 mmHg 86%
16:00 +23°C° 1.4 mm 1 m/s 698 mmHg 87%
17:00 +20°C° 0.5 mm 0 m/s 698 mmHg 88%
18:00 +19°C° 0.5 mm 0 m/s 698 mmHg 89%
19:00 +19°C° 0.5 mm 0 m/s 698 mmHg 90%
20:00 +18°C° 0 mm 0 m/s 698 mmHg 91%
21:00 +17°C° 0 mm 0 m/s 697 mmHg 91%
22:00 +18°C° 0 mm 1 m/s 697 mmHg 92%
23:00 +16°C° 0 mm 1 m/s 697 mmHg 92%

Demain, 3 Juillet, Vendredi

Heure Température Précipitation Vent Pression Humidité
00:00 +16°C° 0 mm 1 m/s 697 mmHg 92%
01:00 +16°C° 0 mm 1 m/s 697 mmHg 92%
02:00 +16°C° 0 mm 1 m/s 697 mmHg 91%
03:00 +16°C° 0 mm 1 m/s 697 mmHg 91%
04:00 +15°C° 0 mm 1 m/s 697 mmHg 91%
05:00 +18°C° 0 mm 1 m/s 697 mmHg 88%
06:00 +20°C° 0 mm 1 m/s 698 mmHg 85%
07:00 +21°C° 0 mm 1 m/s 698 mmHg 83%
08:00 +22°C° 1 mm 1 m/s 699 mmHg 83%
09:00 +21°C° 1 mm 2 m/s 699 mmHg 83%
10:00 +21°C° 1 mm 2 m/s 699 mmHg 83%
11:00 +21°C° 0.7 mm 2 m/s 699 mmHg 80%
12:00 +21°C° 0.7 mm 3 m/s 699 mmHg 78%
13:00 +21°C° 0.7 mm 3 m/s 699 mmHg 75%
14:00 +21°C° 0.2 mm 3 m/s 699 mmHg 74%
15:00 +21°C° 0.2 mm 3 m/s 699 mmHg 74%
16:00 +21°C° 0.2 mm 3 m/s 700 mmHg 74%
17:00 +20°C° 0.2 mm 2 m/s 700 mmHg 78%
18:00 +18°C° 0.2 mm 2 m/s 700 mmHg 83%
19:00 +18°C° 0.2 mm 1 m/s 700 mmHg 87%
20:00 +16°C° 0 mm 1 m/s 700 mmHg 89%
21:00 +15°C° 0 mm 1 m/s 700 mmHg 92%
22:00 +14°C° 0 mm 1 m/s 700 mmHg 94%
23:00 +14°C° 0 mm 1 m/s 701 mmHg 94%

Après-demain, 4 Juillet, Samedi

Heure Température Précipitation Vent Pression Humidité
00:00 +14°C° 0 mm 1 m/s 701 mmHg 94%
01:00 +13°C° 0 mm 1 m/s 701 mmHg 95%
02:00 +13°C° 0 mm 1 m/s 701 mmHg 95%
03:00 +13°C° 0 mm 1 m/s 701 mmHg 95%
04:00 +13°C° 0 mm 1 m/s 701 mmHg 95%
05:00 +14°C° 0 mm 1 m/s 701 mmHg 88%
06:00 +16°C° 0 mm 2 m/s 702 mmHg 82%
07:00 +17°C° 0 mm 2 m/s 702 mmHg 76%
08:00 +19°C° 0 mm 2 m/s 702 mmHg 70%
09:00 +20°C° 0 mm 2 m/s 703 mmHg 63%
10:00 +21°C° 0 mm 2 m/s 703 mmHg 56%
11:00 +23°C° 0 mm 2 m/s 703 mmHg 55%
12:00 +23°C° 0 mm 2 m/s 703 mmHg 54%
13:00 +24°C° 0 mm 2 m/s 702 mmHg 53%
14:00 +23°C° 0 mm 2 m/s 702 mmHg 55%
15:00 +23°C° 0 mm 2 m/s 702 mmHg 57%
16:00 +22°C° 0 mm 3 m/s 702 mmHg 60%
17:00 +20°C° 0 mm 2 m/s 701 mmHg 67%
18:00 +19°C° 0 mm 2 m/s 701 mmHg 75%
19:00 +18°C° 0 mm 1 m/s 701 mmHg 83%
20:00 +16°C° 0 mm 1 m/s 701 mmHg 86%
21:00 +15°C° 0 mm 1 m/s 701 mmHg 89%
22:00 +13°C° 0 mm 1 m/s 701 mmHg 91%
23:00 +13°C° 0 mm 1 m/s 701 mmHg 91%

5 Juillet, Dimanche

Heure Température Précipitation Vent Pression Humidité
00:00 +13°C° 0 mm 1 m/s 701 mmHg 91%
01:00 +13°C° 0 mm 1 m/s 701 mmHg 91%
02:00 +12°C° 0 mm 1 m/s 700 mmHg 90%
03:00 +12°C° 0 mm 1 m/s 700 mmHg 90%
04:00 +12°C° 0 mm 1 m/s 700 mmHg 90%
05:00 +14°C° 0 mm 1 m/s 701 mmHg 82%
06:00 +18°C° 0 mm 1 m/s 701 mmHg 74%
07:00 +20°C° 0 mm 1 m/s 701 mmHg 66%
08:00 +21°C° 0 mm 1 m/s 702 mmHg 60%
09:00 +23°C° 0 mm 1 m/s 702 mmHg 53%
10:00 +24°C° 0 mm 1 m/s 702 mmHg 47%
11:00 +25°C° 0 mm 1 m/s 702 mmHg 46%
12:00 +26°C° 0 mm 1 m/s 702 mmHg 44%
13:00 +26°C° 0 mm 1 m/s 701 mmHg 43%
14:00 +26°C° 0 mm 1 m/s 701 mmHg 46%
15:00 +26°C° 0 mm 1 m/s 701 mmHg 49%
16:00 +26°C° 0 mm 1 m/s 701 mmHg 51%
17:00 +24°C° 0 mm 1 m/s 701 mmHg 61%
18:00 +22°C° 0 mm 1 m/s 700 mmHg 71%
19:00 +19°C° 0 mm 0 m/s 700 mmHg 81%
20:00 +18°C° 0 mm 0 m/s 700 mmHg 84%
21:00 +16°C° 0 mm 0 m/s 700 mmHg 87%
22:00 +15°C° 0 mm 0 m/s 700 mmHg 89%
23:00 +16°C° 0 mm 1 m/s 700 mmHg 90%

6 Juillet, Lundi

Heure Température Précipitation Vent Pression Humidité
00:00 +16°C° 0 mm 1 m/s 700 mmHg 90%
01:00 +16°C° 0 mm 1 m/s 700 mmHg 91%
02:00 +15°C° 0 mm 1 m/s 699 mmHg 91%
03:00 +15°C° 0 mm 1 m/s 699 mmHg 91%
04:00 +15°C° 0 mm 1 m/s 699 mmHg 92%
05:00 +18°C° 0 mm 1 m/s 700 mmHg 85%
06:00 +18°C° 0 mm 0 m/s 700 mmHg 79%
07:00 +20°C° 0 mm 0 m/s 700 mmHg 72%
08:00 +24°C° 0 mm 1 m/s 700 mmHg 66%
09:00 +25°C° 0 mm 1 m/s 701 mmHg 60%
10:00 +27°C° 0 mm 1 m/s 701 mmHg 54%
11:00 +27°C° 0 mm 1 m/s 700 mmHg 54%
12:00 +27°C° 0 mm 2 m/s 700 mmHg 54%
13:00 +28°C° 0 mm 2 m/s 700 mmHg 54%
14:00 +27°C° 0.1 mm 2 m/s 699 mmHg 59%
15:00 +27°C° 0.1 mm 2 m/s 699 mmHg 63%
16:00 +26°C° 0.1 mm 1 m/s 699 mmHg 67%
17:00 +25°C° 0.3 mm 1 m/s 699 mmHg 74%
18:00 +23°C° 0.3 mm 1 m/s 698 mmHg 81%
19:00 +22°C° 0.3 mm 1 m/s 698 mmHg 88%
20:00 +21°C° 0.1 mm 1 m/s 698 mmHg 90%
21:00 +20°C° 0.1 mm 1 m/s 698 mmHg 92%
22:00 +19°C° 0.1 mm 1 m/s 698 mmHg 94%
23:00 +18°C° 0 mm 1 m/s 698 mmHg 95%

7 Juillet, Mardi

Heure Température Précipitation Vent Pression Humidité
00:00 +18°C° 0 mm 1 m/s 698 mmHg 95%
01:00 +16°C° 0 mm 1 m/s 698 mmHg 96%
02:00 +16°C° 0.1 mm 1 m/s 698 mmHg 97%
03:00 +16°C° 0.1 mm 2 m/s 699 mmHg 97%
04:00 +15°C° 0.1 mm 2 m/s 699 mmHg 97%
05:00 +15°C° 0.1 mm 2 m/s 699 mmHg 96%
06:00 +14°C° 0.1 mm 3 m/s 700 mmHg 94%
07:00 +14°C° 0.1 mm 3 m/s 700 mmHg 92%
08:00 +14°C° 0.3 mm 3 m/s 700 mmHg 91%
09:00 +13°C° 0.3 mm 3 m/s 700 mmHg 89%
10:00 +13°C° 0.3 mm 3 m/s 701 mmHg 88%
11:00 +12°C° 0.6 mm 3 m/s 700 mmHg 89%
12:00 +12°C° 0.6 mm 3 m/s 700 mmHg 91%
13:00 +11°C° 0.6 mm 3 m/s 700 mmHg 93%
14:00 +11°C° 0.6 mm 3 m/s 700 mmHg 94%
15:00 +12°C° 0.6 mm 2 m/s 701 mmHg 94%
16:00 +12°C° 0.6 mm 2 m/s 701 mmHg 95%
17:00 +12°C° 0.3 mm 2 m/s 701 mmHg 95%
18:00 +12°C° 0.3 mm 2 m/s 701 mmHg 94%
19:00 +12°C° 0.3 mm 2 m/s 701 mmHg 93%
20:00 +10°C° 0.1 mm 2 m/s 701 mmHg 94%
21:00 +10°C° 0.1 mm 2 m/s 701 mmHg 94%
22:00 +10°C° 0.1 mm 2 m/s 702 mmHg 95%
23:00 +9°C° 0 mm 2 m/s 702 mmHg 95%
Voir plus